When you browse on this site, cookies collect data to enhance your experience and personalize the content and advertising you see.
Visit our Privacy Policy to learn more. By continuing to use the site, you agree to this use of cookies and data.
  • In Netherlands
  • List of Countries
  • For 7 days
  • Water Temperature
  • Satellite Maps
  • Weather Map
  • Weather Widgets
  • user-avatar
    Login

    Hourly Weather Mostar

    Today, 20 May, Monday

    Time Temperature Precipitation Wind Pressure Humidity
    00:00 +13°C° 0.3 mm 3 mps 748 mmHg 92%
    01:00 +13°C° 0 mm 3 mps 748 mmHg 92%
    02:00 +13°C° 0.3 mm 3 mps 748 mmHg 92%
    03:00 +13°C° 0.3 mm 3 mps 748 mmHg 92%
    04:00 +13°C° 0.3 mm 3 mps 748 mmHg 92%
    05:00 +13°C° 0.5 mm 3 mps 748 mmHg 90%
    06:00 +14°C° 0.5 mm 4 mps 748 mmHg 88%
    07:00 +15°C° 0 mm 4 mps 748 mmHg 86%
    08:00 +17°C° 1 mm 4 mps 748 mmHg 84%
    09:00 +17°C° 1 mm 4 mps 749 mmHg 82%
    10:00 +18°C° 1 mm 4 mps 749 mmHg 80%
    11:00 +18°C° 0.6 mm 4 mps 749 mmHg 78%
    12:00 +18°C° 0.6 mm 4 mps 749 mmHg 76%
    13:00 +18°C° 0 mm 4 mps 750 mmHg 74%
    14:00 +18°C° 0.7 mm 4 mps 750 mmHg 75%
    15:00 +18°C° 0.7 mm 4 mps 750 mmHg 76%
    16:00 +17°C° 0.7 mm 4 mps 750 mmHg 77%
    17:00 +15°C° 0.6 mm 4 mps 750 mmHg 80%
    18:00 +14°C° 0.6 mm 3 mps 750 mmHg 83%
    19:00 +13°C° 0.6 mm 3 mps 750 mmHg 86%
    20:00 +13°C° 0.5 mm 3 mps 750 mmHg 87%
    21:00 +12°C° 0.5 mm 3 mps 751 mmHg 87%
    22:00 +12°C° 0.5 mm 3 mps 751 mmHg 88%
    23:00 +12°C° 0.1 mm 3 mps 751 mmHg 88%

    Tomorrow, 21 May, Tuesday

    Time Temperature Precipitation Wind Pressure Humidity
    00:00 +12°C° 0.1 mm 3 mps 751 mmHg 88%
    01:00 +12°C° 0.1 mm 2 mps 751 mmHg 88%
    02:00 +12°C° 0 mm 2 mps 751 mmHg 88%
    03:00 +12°C° 0 mm 2 mps 752 mmHg 87%
    04:00 +12°C° 0 mm 2 mps 752 mmHg 87%
    05:00 +12°C° 0 mm 3 mps 752 mmHg 85%
    06:00 +13°C° 0 mm 3 mps 752 mmHg 83%
    07:00 +14°C° 0 mm 3 mps 752 mmHg 81%
    08:00 +15°C° 0.2 mm 4 mps 752 mmHg 79%
    09:00 +17°C° 0.2 mm 4 mps 752 mmHg 78%
    10:00 +17°C° 0.2 mm 4 mps 752 mmHg 76%
    11:00 +18°C° 0.4 mm 4 mps 752 mmHg 76%
    12:00 +18°C° 0.4 mm 4 mps 752 mmHg 77%
    13:00 +18°C° 0.4 mm 4 mps 752 mmHg 78%
    14:00 +18°C° 0.2 mm 3 mps 753 mmHg 78%
    15:00 +18°C° 0.2 mm 3 mps 753 mmHg 78%
    16:00 +18°C° 0.2 mm 3 mps 753 mmHg 78%
    17:00 +17°C° 0.2 mm 2 mps 753 mmHg 80%
    18:00 +16°C° 0.2 mm 2 mps 753 mmHg 83%
    19:00 +16°C° 0.2 mm 2 mps 753 mmHg 86%
    20:00 +16°C° 0.1 mm 2 mps 754 mmHg 86%
    21:00 +16°C° 0.1 mm 2 mps 754 mmHg 87%
    22:00 +15°C° 0.1 mm 2 mps 755 mmHg 87%
    23:00 +15°C° 0.1 mm 2 mps 755 mmHg 88%

    Day after tomorrow, 22 May, Wednesday

    Time Temperature Precipitation Wind Pressure Humidity
    00:00 +15°C° 0.1 mm 2 mps 755 mmHg 88%
    01:00 +15°C° 0.1 mm 2 mps 755 mmHg 88%
    02:00 +15°C° 0 mm 2 mps 755 mmHg 88%
    03:00 +14°C° 0 mm 2 mps 755 mmHg 88%
    04:00 +14°C° 0 mm 2 mps 755 mmHg 88%
    05:00 +15°C° 0 mm 2 mps 755 mmHg 86%
    06:00 +16°C° 0 mm 2 mps 755 mmHg 83%
    07:00 +17°C° 0 mm 3 mps 755 mmHg 81%
    08:00 +18°C° 0 mm 3 mps 755 mmHg 76%
    09:00 +19°C° 0 mm 3 mps 755 mmHg 71%
    10:00 +20°C° 0 mm 3 mps 756 mmHg 66%
    11:00 +21°C° 0 mm 3 mps 755 mmHg 65%
    12:00 +21°C° 0 mm 3 mps 755 mmHg 64%
    13:00 +22°C° 0 mm 3 mps 755 mmHg 62%
    14:00 +21°C° 0 mm 3 mps 755 mmHg 63%
    15:00 +21°C° 0 mm 3 mps 755 mmHg 64%
    16:00 +21°C° 0 mm 2 mps 754 mmHg 65%
    17:00 +19°C° 0 mm 2 mps 755 mmHg 70%
    18:00 +19°C° 0 mm 1 mps 755 mmHg 75%
    19:00 +16°C° 0 mm 0 mps 755 mmHg 79%
    20:00 +15°C° 0 mm 0 mps 755 mmHg 81%
    21:00 +14°C° 0 mm 0 mps 756 mmHg 83%
    22:00 +15°C° 0 mm 1 mps 756 mmHg 85%
    23:00 +14°C° 0 mm 1 mps 756 mmHg 85%

    23 May, Thursday

    Time Temperature Precipitation Wind Pressure Humidity
    00:00 +14°C° 0 mm 1 mps 756 mmHg 85%
    01:00 +14°C° 0 mm 1 mps 756 mmHg 85%
    02:00 +14°C° 0 mm 1 mps 756 mmHg 84%
    03:00 +14°C° 0 mm 1 mps 755 mmHg 83%
    04:00 +13°C° 0 mm 2 mps 755 mmHg 82%
    05:00 +15°C° 0 mm 1 mps 755 mmHg 77%
    06:00 +16°C° 0 mm 1 mps 755 mmHg 73%
    07:00 +19°C° 0 mm 1 mps 755 mmHg 69%
    08:00 +21°C° 0 mm 1 mps 755 mmHg 65%
    09:00 +22°C° 0 mm 1 mps 755 mmHg 60%
    10:00 +24°C° 0 mm 1 mps 755 mmHg 55%
    11:00 +24°C° 0.2 mm 2 mps 755 mmHg 57%
    12:00 +24°C° 0.2 mm 2 mps 754 mmHg 58%
    13:00 +24°C° 0.2 mm 3 mps 754 mmHg 59%
    14:00 +24°C° 0.3 mm 3 mps 754 mmHg 61%
    15:00 +24°C° 0.3 mm 3 mps 753 mmHg 63%
    16:00 +24°C° 0.3 mm 3 mps 753 mmHg 64%
    17:00 +23°C° 0.2 mm 2 mps 753 mmHg 71%
    18:00 +20°C° 0.2 mm 2 mps 753 mmHg 77%
    19:00 +19°C° 0.2 mm 2 mps 753 mmHg 83%
    20:00 +18°C° 0.1 mm 2 mps 753 mmHg 83%
    21:00 +18°C° 0.1 mm 2 mps 753 mmHg 84%
    22:00 +17°C° 0.1 mm 2 mps 754 mmHg 84%
    23:00 +17°C° 0 mm 2 mps 753 mmHg 84%

    24 May, Friday

    Time Temperature Precipitation Wind Pressure Humidity
    00:00 +16°C° 0 mm 2 mps 753 mmHg 84%
    01:00 +16°C° 0 mm 2 mps 753 mmHg 84%
    02:00 +16°C° 0 mm 2 mps 753 mmHg 84%
    03:00 +14°C° 0 mm 3 mps 753 mmHg 84%
    04:00 +14°C° 0 mm 3 mps 752 mmHg 84%
    05:00 +16°C° 0 mm 3 mps 752 mmHg 80%
    06:00 +18°C° 0 mm 3 mps 752 mmHg 76%
    07:00 +19°C° 0 mm 3 mps 752 mmHg 72%
    08:00 +20°C° 0 mm 2 mps 752 mmHg 63%
    09:00 +23°C° 0 mm 2 mps 752 mmHg 55%
    10:00 +24°C° 0 mm 2 mps 752 mmHg 47%
    11:00 +25°C° 0 mm 2 mps 752 mmHg 45%
    12:00 +26°C° 0 mm 2 mps 752 mmHg 43%
    13:00 +27°C° 0 mm 2 mps 751 mmHg 41%
    14:00 +26°C° 0 mm 2 mps 751 mmHg 44%
    15:00 +26°C° 0 mm 2 mps 751 mmHg 46%
    16:00 +25°C° 0 mm 3 mps 750 mmHg 49%
    17:00 +23°C° 0 mm 2 mps 750 mmHg 57%
    18:00 +21°C° 0 mm 2 mps 750 mmHg 64%
    19:00 +20°C° 0 mm 1 mps 750 mmHg 72%
    20:00 +19°C° 0 mm 1 mps 751 mmHg 72%
    21:00 +17°C° 0 mm 2 mps 751 mmHg 71%
    22:00 +17°C° 0 mm 2 mps 751 mmHg 71%
    23:00 +16°C° 0 mm 2 mps 751 mmHg 70%

    25 May, Saturday

    Time Temperature Precipitation Wind Pressure Humidity
    00:00 +16°C° 0 mm 2 mps 751 mmHg 70%
    01:00 +15°C° 0 mm 2 mps 751 mmHg 69%
    02:00 +15°C° 0 mm 2 mps 751 mmHg 69%
    03:00 +15°C° 0 mm 2 mps 751 mmHg 69%
    04:00 +15°C° 0 mm 2 mps 751 mmHg 69%
    05:00 +16°C° 0 mm 2 mps 751 mmHg 68%
    06:00 +17°C° 0 mm 2 mps 751 mmHg 67%
    07:00 +19°C° 0 mm 2 mps 751 mmHg 66%
    08:00 +20°C° 0 mm 2 mps 751 mmHg 66%
    09:00 +21°C° 0 mm 2 mps 751 mmHg 65%
    10:00 +22°C° 0 mm 3 mps 751 mmHg 65%
    11:00 +22°C° 0 mm 3 mps 751 mmHg 64%
    12:00 +24°C° 0 mm 2 mps 751 mmHg 63%
    13:00 +24°C° 0 mm 2 mps 751 mmHg 62%
    14:00 +24°C° 0 mm 2 mps 751 mmHg 63%
    15:00 +24°C° 0 mm 2 mps 751 mmHg 64%
    16:00 +23°C° 0 mm 2 mps 750 mmHg 65%
    17:00 +21°C° 0 mm 2 mps 750 mmHg 70%
    18:00 +20°C° 0 mm 1 mps 751 mmHg 76%
    19:00 +19°C° 0 mm 1 mps 751 mmHg 82%
    20:00 +18°C° 0 mm 1 mps 751 mmHg 84%
    21:00 +18°C° 0 mm 1 mps 751 mmHg 85%
    22:00 +16°C° 0 mm 1 mps 752 mmHg 87%
    23:00 +16°C° 0 mm 1 mps 752 mmHg 87%
    Show more